[[{"header":{"parameterUnit":"m.s-1","parameterCategory":2,"la1":30.2992,"la2":30.254,"lo1":-89.0895,"lo2":-89.0443,"dy":0.0025,"dx":0.0025,"nx":19,"ny":19,"refTime":"2026-05-14T03:00:00:Z","depth":"0","parameterNumber":2,"parameterNumberName":"U-component_of_CURRENTS"},"data":[0,0,0,0.348,0.3478,0.3397,0.3397,0.3315,0.3314,0,0,0,0,0,0,0,0,0,0,0,0.3508,0.3507,0.348,0.3478,0.3397,0.3397,0.3315,0.3314,0,0,0,0,0,0,0,0,0,0,0,0.3508,0.3507,0.3506,0.3478,0.3397,0.3397,0.3315,0.3373,0,0,0,0,0,0,0,0,0,0,0.345,0.3483,0.3508,0.3506,0.3477,0.3397,0.3397,0.3375,0.3369,0.3356,0,0.3334,0,0.3318,0.3308,0.3308,0,0,0,0.3485,0.3488,0.3451,0.3506,0.3476,0.3397,0.3435,0.3372,0.3365,0.3348,0.3333,0.3329,0.3317,0.3308,0.3307,0.3256,0.3256,0,0,0.349,0.351,0.3455,0.3446,0.3443,0.3438,0.3433,0.3367,0.3364,0.3332,0.3327,0.3316,0.3307,0.3307,0.3256,0.3256,0,0,0,0.3498,0.3513,0.3477,0.345,0.3431,0.3435,0.343,0.3368,0.3351,0.3326,0.3315,0.3307,0.3306,0.3255,0.3256,0.3278,0,0,0,0.3501,0.3516,0.3479,0.3493,0.3431,0.3398,0.3432,0.3356,0.3348,0.3315,0.3307,0.3305,0.3255,0.3255,0.3278,0.327,0,0,0,0.3514,0.3519,0.3502,0.3494,0.3453,0.3399,0.3379,0.3354,0.334,0.3308,0.3305,0.3255,0.3255,0.3277,0.327,0.3373,0,0,0,0.3548,0.3515,0.3502,0.3461,0.3454,0.3403,0.3379,0.3354,0.333,0.3306,0.3255,0.3256,0.3277,0.3269,0.3371,0.3487,0.3506,0,0,0.3524,0.3513,0.3486,0.3472,0.3414,0.3416,0.3372,0.3338,0.3327,0.3279,0.3278,0.3278,0.327,0.3373,0.3495,0.3514,0,0,0,0.3489,0.3468,0.3448,0.3411,0.338,0.3361,0.3336,0.3328,0.3308,0.331,0.3275,0.3268,0.3334,0.3398,0.3413,0.3402,0.3256,0.3256,0.3256,0.3495,0.3459,0.3407,0.3361,0.3343,0.3326,0.3315,0.3302,0.3297,0.3303,0.3285,0.337,0.3437,0.345,0.3436,0.3292,0.3292,0.3292,0.3292,0.3456,0.3411,0.3378,0.3313,0.3294,0.3275,0.3273,0.3287,0.3321,0.3291,0.3357,0.3414,0.3468,0.3447,0.3294,0.3294,0.3293,0.3293,0.3293,0.3463,0.3425,0.3385,0.3307,0.3267,0.3249,0.3288,0.3303,0.3339,0.338,0.3538,0.3539,0.3528,0.3465,0.3465,0.3466,0.3466,0.3466,0.3467,0.3473,0.3427,0.3378,0.3299,0.326,0.3261,0.3318,0.3388,0.3529,0.3566,0.3569,0.3557,0.3424,0.3426,0.3473,0.3472,0.3471,0.3471,0.347,0.3417,0.3441,0.3364,0.332,0.3249,0.3231,0.3346,0.3544,0.3668,0.3759,0.3775,0.3689,0.3707,0.3695,0.3705,0.3821,0.3821,0.3821,0.3821,0.3404,0.3403,0.331,0.3249,0.322,0.3207,0.3321,0.3549,0.38,0.3912,0.3909,0.3873,0.3859,0.3881,0.3866,0.3876,0.4033,0.4033,0.4033,0.3347,0.3334,0.3244,0.3199,0.3159,0.3169,0.3206,0.343,0.3863,0.4033,0.3871,0.3862,0.3792,0.3771,0.3788,0.3767,0.3777,0,0]},{"header":{"parameterUnit":"m.s-1","parameterCategory":2,"la1":30.2992,"la2":30.254,"lo1":-89.0895,"lo2":-89.0443,"dy":0.0025,"dx":0.0025,"nx":19,"ny":19,"refTime":"2026-05-14T03:00:00:Z","depth":"0","parameterNumber":3,"parameterNumberName":"V-component_of_CURRENTS"},"data":[0,0,0,-0.0824,-0.0828,-0.1057,-0.1058,-0.1354,-0.1356,0,0,0,0,0,0,0,0,0,0,0,-0.0732,-0.0733,-0.0824,-0.0829,-0.1057,-0.1058,-0.1353,-0.1356,0,0,0,0,0,0,0,0,0,0,0,-0.0731,-0.0732,-0.0734,-0.083,-0.1057,-0.1059,-0.1353,-0.1183,0,0,0,0,0,0,0,0,0,0,-0.0962,-0.0858,-0.0732,-0.0734,-0.0831,-0.1057,-0.1059,-0.1175,-0.1193,-0.1247,0,-0.1268,0,-0.132,-0.1375,-0.1376,0,0,0,-0.0843,-0.0842,-0.0917,-0.0734,-0.0833,-0.1056,-0.0958,-0.1185,-0.1206,-0.1271,-0.1272,-0.1284,-0.1325,-0.1377,-0.1378,-0.1538,-0.1538,0,0,-0.083,-0.0769,-0.0902,-0.093,-0.0875,-0.0951,-0.0965,-0.1198,-0.1204,-0.1273,-0.1291,-0.133,-0.1379,-0.1381,-0.1539,-0.1538,0,0,0,-0.0785,-0.0759,-0.0829,-0.0917,-0.096,-0.0957,-0.0974,-0.1194,-0.1221,-0.1295,-0.1334,-0.138,-0.1384,-0.1539,-0.1538,-0.1364,0,0,0,-0.0778,-0.0733,-0.0823,-0.0788,-0.0954,-0.1077,-0.0963,-0.1204,-0.1233,-0.1332,-0.138,-0.1386,-0.1539,-0.1539,-0.1369,-0.1233,0,0,0,-0.0724,-0.0727,-0.0751,-0.0784,-0.088,-0.1074,-0.1115,-0.1212,-0.1256,-0.1376,-0.1387,-0.154,-0.1539,-0.1374,-0.1244,-0.1059,0,0,0,-0.0659,-0.0667,-0.0748,-0.0775,-0.0878,-0.1002,-0.1114,-0.1222,-0.1315,-0.1382,-0.1539,-0.1538,-0.1375,-0.1251,-0.1068,-0.0698,-0.0628,0,0,-0.063,-0.0662,-0.0681,-0.0759,-0.0841,-0.0972,-0.1035,-0.1202,-0.1321,-0.1467,-0.1471,-0.1367,-0.1245,-0.1061,-0.0654,-0.0584,0,0,0,-0.0647,-0.0654,-0.0695,-0.0764,-0.0882,-0.0945,-0.1119,-0.1177,-0.1293,-0.1372,-0.1401,-0.1329,-0.1217,-0.1015,-0.0961,-0.1062,-0.1535,-0.1535,-0.1535,-0.0494,-0.0586,-0.0611,-0.0726,-0.0797,-0.0941,-0.0971,-0.1083,-0.1237,-0.1246,-0.1213,-0.0986,-0.0774,-0.0728,-0.0841,-0.1278,-0.1278,-0.1277,-0.1277,-0.0424,-0.0426,-0.0529,-0.0583,-0.0671,-0.0723,-0.0838,-0.0909,-0.0902,-0.1086,-0.0988,-0.0876,-0.0656,-0.0799,-0.1266,-0.1268,-0.1269,-0.127,-0.1271,-0.0296,-0.0308,-0.0359,-0.0419,-0.043,-0.0543,-0.0391,-0.0542,-0.0688,-0.0619,-0.0383,-0.0383,-0.0475,-0.0569,-0.0568,-0.0566,-0.0565,-0.0564,-0.0563,-0.0133,-0.0192,-0.0173,-0.0237,-0.02,-0.0124,-0.0118,-0.0023,0.0008,-0.0108,-0.0106,-0.0383,-0.0769,-0.0759,-0.0541,-0.0545,-0.0548,-0.055,-0.0552,0.0003,-0.0011,0.0028,0.0064,0.0178,0.0442,0.0449,0.0745,0.0763,0.0861,0.038,0.0171,0.0179,0.0135,0.0166,0.0611,0.0611,0.0611,0.0611,0.0135,0.0112,0.0224,0.0347,0.0568,0.0711,0.1254,0.1429,0.1227,0.1072,0.0789,0.0653,0.0611,0.0626,0.0571,0.0601,0.1146,0.1146,0.1145,0.0226,0.0243,0.0381,0.0474,0.0739,0.1084,0.1598,0.1935,0.1594,0.1132,0.0575,0.0553,0.0292,0.0234,0.0192,0.0124,0.0147,0,0]}],[{"header":{"parameterUnit":"m.s-1","parameterCategory":2,"la1":30.2992,"la2":30.254,"lo1":-89.0895,"lo2":-89.0443,"dy":0.0025,"dx":0.0025,"nx":19,"ny":19,"refTime":"2026-05-14T03:00:00:Z","depth":"2","parameterNumber":2,"parameterNumberName":"U-component_of_CURRENTS"},"data":[0,0,0,0.2828,0.2835,0.3124,0.3125,0.3144,0.3143,0,0,0,0,0,0,0,0,0,0,0,0.2719,0.2722,0.2827,0.2836,0.3124,0.3125,0.3144,0.3143,0,0,0,0,0,0,0,0,0,0,0,0.2718,0.2721,0.2724,0.2837,0.3124,0.3125,0.3144,0.3006,0,0,0,0,0,0,0,0,0,0,0.2767,0.2688,0.272,0.2724,0.2839,0.3124,0.3125,0.3003,0.3015,0.2922,0,0.2999,0,0.3081,0.3139,0.3139,0,0,0,0.2807,0.2679,0.2803,0.2725,0.2842,0.3124,0.2986,0.3012,0.3025,0.2935,0.3,0.3004,0.3081,0.3139,0.3139,0.3062,0.3062,0,0,0.2792,0.2712,0.2796,0.2813,0.2952,0.2977,0.2996,0.3024,0.3014,0.3001,0.3007,0.3082,0.3138,0.3138,0.3062,0.3062,0,0,0,0.2765,0.27,0.2829,0.2808,0.2896,0.2986,0.3007,0.3012,0.3071,0.3008,0.3082,0.3138,0.3137,0.3063,0.3062,0.3063,0,0,0,0.2754,0.2689,0.2823,0.2769,0.2898,0.2997,0.2994,0.3069,0.3077,0.3082,0.3138,0.3137,0.3063,0.3062,0.3064,0.3052,0,0,0,0.27,0.268,0.2738,0.2766,0.2912,0.3001,0.306,0.3074,0.312,0.3139,0.3137,0.3063,0.3063,0.3065,0.3054,0.318,0,0,0,0.2574,0.2708,0.2736,0.2856,0.291,0.3039,0.3062,0.313,0.3148,0.3138,0.3063,0.3062,0.3065,0.3055,0.3179,0.3165,0.317,0,0,0.2688,0.2718,0.2785,0.282,0.2909,0.2995,0.3041,0.3084,0.3092,0.3024,0.3026,0.3063,0.3054,0.318,0.3113,0.312,0,0,0,0.2782,0.2807,0.2841,0.289,0.2983,0.3008,0.3071,0.3079,0.308,0.3111,0.3045,0.3038,0.3119,0.3106,0.3111,0.3058,0.3058,0.3058,0.3058,0.2791,0.282,0.2859,0.2891,0.2937,0.2998,0.3028,0.3036,0.3043,0.3041,0.3026,0.3096,0.3077,0.3082,0.3017,0.3017,0.3017,0.3017,0.3017,0.2841,0.2848,0.2814,0.2868,0.2872,0.2901,0.2949,0.2983,0.3031,0.2996,0.3078,0.3087,0.3088,0.3016,0.3016,0.3016,0.3016,0.3016,0.3016,0.2806,0.2812,0.2823,0.282,0.2821,0.2866,0.2951,0.2979,0.3031,0.3076,0.3172,0.3171,0.3155,0.3173,0.3173,0.3174,0.3174,0.3175,0.3175,0.2773,0.278,0.2768,0.2773,0.2785,0.2845,0.297,0.3088,0.3194,0.3167,0.3168,0.3151,0.3146,0.3165,0.3182,0.3181,0.318,0.3179,0.3179,0.2707,0.2736,0.272,0.2726,0.2766,0.2804,0.299,0.3218,0.3362,0.3424,0.3251,0.3247,0.3269,0.3263,0.3285,0.3333,0.3333,0.3333,0.3333,0.2648,0.2663,0.2631,0.2644,0.2708,0.2777,0.2861,0.2884,0.3057,0.2988,0.3001,0.2896,0.29,0.2895,0.2897,0.2909,0.2859,0.2857,0.2855,0.2535,0.2566,0.2511,0.2567,0.2643,0.2737,0.2594,0.2322,0.249,0.2822,0.2762,0.3331,0.3212,0.3205,0.3225,0.3218,0.3248,0,0]},{"header":{"parameterUnit":"m.s-1","parameterCategory":2,"la1":30.2992,"la2":30.254,"lo1":-89.0895,"lo2":-89.0443,"dy":0.0025,"dx":0.0025,"nx":19,"ny":19,"refTime":"2026-05-14T03:00:00:Z","depth":"2","parameterNumber":3,"parameterNumberName":"V-component_of_CURRENTS"},"data":[0,0,0,0.0699,0.0698,0.0625,0.0625,0.0501,0.05,0,0,0,0,0,0,0,0,0,0,0,0.0705,0.0704,0.07,0.0698,0.0625,0.0625,0.0502,0.05,0,0,0,0,0,0,0,0,0,0,0,0.0706,0.0704,0.0703,0.0698,0.0625,0.0625,0.0502,0.0563,0,0,0,0,0,0,0,0,0,0,0.0637,0.0658,0.0705,0.0703,0.0697,0.0625,0.0625,0.0566,0.0559,0.0528,0,0.0502,0,0.0507,0.0492,0.0491,0,0,0,0.0693,0.0664,0.0638,0.0703,0.0697,0.0625,0.0656,0.0563,0.0555,0.0518,0.05,0.0496,0.0505,0.0491,0.049,0.0412,0.0412,0,0,0.0697,0.07,0.0644,0.0633,0.0658,0.0659,0.0654,0.0558,0.0544,0.05,0.0494,0.0503,0.049,0.0489,0.0412,0.0412,0,0,0,0.0712,0.0703,0.0679,0.0637,0.0631,0.0657,0.0652,0.0548,0.0538,0.0493,0.0502,0.0489,0.0488,0.0412,0.0412,0.0461,0,0,0,0.0714,0.0712,0.0681,0.0683,0.0633,0.0596,0.0644,0.0544,0.0534,0.0502,0.0489,0.0487,0.0412,0.0412,0.046,0.0491,0,0,0,0.0712,0.0713,0.0696,0.0683,0.0656,0.0598,0.0583,0.0542,0.054,0.0491,0.0486,0.0412,0.0412,0.0458,0.0488,0.0532,0,0,0,0.0729,0.0707,0.0696,0.0688,0.0656,0.0657,0.0584,0.056,0.0525,0.0489,0.0412,0.0412,0.0458,0.0486,0.053,0.0637,0.0656,0,0,0.0719,0.0706,0.0708,0.0698,0.0716,0.0668,0.0671,0.0579,0.0515,0.044,0.0438,0.046,0.0488,0.0531,0.065,0.0669,0,0,0,0.072,0.0705,0.0717,0.0716,0.0722,0.0716,0.0644,0.0603,0.0516,0.0495,0.0451,0.0467,0.0493,0.0553,0.0567,0.0413,0.0413,0.0413,0.0413,0.0714,0.0724,0.0733,0.0737,0.0748,0.0731,0.0712,0.0633,0.056,0.0524,0.0499,0.0557,0.062,0.0632,0.0485,0.0485,0.0485,0.0486,0.0486,0.0705,0.0717,0.0731,0.0727,0.0751,0.0743,0.0727,0.0675,0.0617,0.0545,0.0568,0.0592,0.0652,0.0489,0.0489,0.0488,0.0488,0.0488,0.0487,0.0707,0.0716,0.0688,0.0696,0.0728,0.0745,0.0832,0.075,0.0662,0.0667,0.0717,0.0717,0.0603,0.0663,0.0663,0.0664,0.0664,0.0664,0.0664,0.0728,0.0708,0.0682,0.0685,0.0724,0.0809,0.087,0.0919,0.0875,0.0788,0.0788,0.0617,0.0611,0.0613,0.067,0.0669,0.0668,0.0668,0.0667,0.0754,0.0709,0.0696,0.0705,0.0823,0.1032,0.109,0.1221,0.1182,0.1187,0.087,0.0863,0.0863,0.0851,0.0859,0.0976,0.0976,0.0976,0.0976,0.0772,0.0749,0.0743,0.08,0.0955,0.1148,0.1435,0.1403,0.1229,0.102,0.1017,0.0988,0.0976,0.0978,0.0963,0.0971,0.1117,0.1117,0.1116,0.0797,0.0788,0.0812,0.0837,0.1023,0.1338,0.1585,0.1473,0.1152,0.1112,0.0942,0.1005,0.0953,0.0938,0.093,0.0911,0.0919,0,0]}],[{"header":{"parameterUnit":"m.s-1","parameterCategory":2,"la1":30.2992,"la2":30.254,"lo1":-89.0895,"lo2":-89.0443,"dy":0.0025,"dx":0.0025,"nx":19,"ny":19,"refTime":"2026-05-14T03:00:00:Z","depth":"4","parameterNumber":2,"parameterNumberName":"U-component_of_CURRENTS"},"data":[0,0,0,0.1006,0.1009,0.1186,0.1187,0.1373,0.1374,0,0,0,0,0,0,0,0,0,0,0,0.0875,0.0875,0.1005,0.1009,0.1186,0.1187,0.1373,0.1374,0,0,0,0,0,0,0,0,0,0,0,0.0876,0.0875,0.0874,0.101,0.1186,0.1187,0.1372,0.1252,0,0,0,0,0,0,0,0,0,0,0.1086,0.1052,0.0875,0.0874,0.1011,0.1186,0.1187,0.1247,0.126,0.1276,0,0.1241,0,0.1335,0.1384,0.1385,0,0,0,0.1023,0.1042,0.1012,0.0874,0.1012,0.1186,0.111,0.1254,0.1269,0.1293,0.1245,0.1255,0.1338,0.1385,0.1386,0.1634,0.1636,0,0,0.1014,0.1003,0.1001,0.1018,0.0977,0.1105,0.1116,0.1264,0.1289,0.1246,0.1261,0.1341,0.1386,0.1388,0.1633,0.1634,0,0,0,0.0976,0.0996,0.0965,0.1007,0.1056,0.1109,0.1122,0.1283,0.1247,0.1264,0.1343,0.1387,0.1389,0.1631,0.1633,0.161,0,0,0,0.0971,0.0973,0.0959,0.0969,0.1051,0.1204,0.1138,0.1235,0.1258,0.1342,0.1387,0.1391,0.1629,0.1632,0.1606,0.1668,0,0,0,0.0882,0.097,0.0943,0.0965,0.1036,0.1202,0.1182,0.1243,0.1307,0.1385,0.1391,0.1628,0.1632,0.1603,0.1662,0.1751,0,0,0,0.093,0.0921,0.0942,0.0968,0.1032,0.1145,0.1183,0.1329,0.1402,0.1388,0.1629,0.1633,0.1603,0.1658,0.1746,0.1432,0,0,0,0.0949,0.0924,0.0934,0.0958,0.1074,0.1126,0.1283,0.1398,0.1466,0.1575,0.1582,0.1607,0.1662,0.175,0.1657,0,0,0,0,0.0963,0.0957,0.0998,0.1062,0.1141,0.1265,0.1388,0.145,0.1601,0.1525,0.1691,0.173,0.1783,0.1591,0.1651,0.1651,0.165,0.165,0.165,0.0947,0.0988,0.1061,0.1129,0.1219,0.1387,0.1493,0.1609,0.1635,0.173,0.1768,0.1911,0.1709,0.1799,0.1799,0.1798,0.1798,0.1798,0.1798,0.0928,0.094,0.107,0.1162,0.1293,0.1425,0.1615,0.1676,0.1879,0.1856,0.1906,0.1652,0.1798,0.1798,0.1798,0.1798,0.1798,0.1798,0.1798,0.0851,0.0881,0.0929,0.1083,0.1276,0.1479,0.1647,0.1773,0.1927,0.1997,0.1841,0.1961,0.1898,0.202,0.2021,0.2022,0.2022,0.2023,0.2023,0.072,0.0777,0.0821,0.1025,0.1186,0.142,0.1681,0.1785,0.1917,0.1879,0.2036,0.1988,0.1981,0.1918,0.2034,0.2032,0.203,0.2029,0.2029,0.0588,0.0576,0.0681,0.0794,0.1127,0.1267,0.1552,0.1686,0.1792,0.1805,0.1812,0.182,0.1826,0.1825,0.1755,0.1827,0.1823,0.182,0,0.0481,0.0479,0.0578,0.0706,0.092,0.1157,0.1254,0.1419,0.1567,0.1523,0.1775,0.1777,0.1782,0.1779,0.1773,0.1685,0,0,0,0.0385,0.045,0.0513,0.0628,0.0828,0.1017,0.1275,0.1278,0.1579,0.1539,0.1731,0.1754,0.1811,0.2064,0.2097,0.2088,0.1991,0,0]},{"header":{"parameterUnit":"m.s-1","parameterCategory":2,"la1":30.2992,"la2":30.254,"lo1":-89.0895,"lo2":-89.0443,"dy":0.0025,"dx":0.0025,"nx":19,"ny":19,"refTime":"2026-05-14T03:00:00:Z","depth":"4","parameterNumber":3,"parameterNumberName":"V-component_of_CURRENTS"},"data":[0,0,0,0.0634,0.0635,0.0667,0.0667,0.059,0.0589,0,0,0,0,0,0,0,0,0,0,0,0.0588,0.0588,0.0633,0.0635,0.0667,0.0667,0.059,0.0589,0,0,0,0,0,0,0,0,0,0,0,0.0588,0.0588,0.0588,0.0635,0.0667,0.0667,0.059,0.059,0,0,0,0,0,0,0,0,0,0,0.0571,0.0575,0.0588,0.0588,0.0636,0.0667,0.0667,0.0591,0.059,0.0549,0,0.0547,0,0.0588,0.0583,0.0583,0,0,0,0.0612,0.0576,0.0574,0.0588,0.0636,0.0667,0.0646,0.0591,0.0589,0.0547,0.0546,0.0545,0.0587,0.0583,0.0582,0.0544,0.0544,0,0,0.061,0.0604,0.0575,0.0573,0.0633,0.0645,0.0647,0.0591,0.0588,0.0546,0.0545,0.0586,0.0582,0.0581,0.0544,0.0544,0,0,0,0.0621,0.0602,0.0604,0.0574,0.0602,0.0647,0.0649,0.059,0.0587,0.0545,0.0585,0.0582,0.0581,0.0543,0.0544,0.0636,0,0,0,0.0618,0.0611,0.0603,0.0601,0.0604,0.0621,0.0649,0.059,0.0587,0.0585,0.0582,0.058,0.0543,0.0544,0.0633,0.0698,0,0,0,0.0589,0.0609,0.0606,0.06,0.0628,0.0623,0.0618,0.0591,0.0612,0.0583,0.0579,0.0543,0.0544,0.0631,0.0692,0.0664,0,0,0,0.0589,0.0619,0.0606,0.063,0.0627,0.0661,0.0619,0.0644,0.0628,0.0581,0.0543,0.0544,0.063,0.0689,0.0661,0.0556,0,0,0,0.0636,0.0624,0.0634,0.0625,0.0702,0.0655,0.0699,0.0665,0.0615,0.0548,0.0548,0.0634,0.0692,0.0663,0.0587,0,0,0,0,0.0654,0.0671,0.0686,0.0716,0.0723,0.074,0.0715,0.0695,0.0664,0.0613,0.0619,0.0652,0.0631,0.0561,0.0546,0.0546,0.0546,0.0546,0.0546,0.0706,0.0714,0.0763,0.0779,0.0798,0.08,0.08,0.0757,0.0702,0.0709,0.0716,0.0747,0.0677,0.0686,0.0687,0.0687,0.0688,0.0688,0.0688,0.0765,0.0773,0.0808,0.0873,0.0881,0.0907,0.0878,0.0855,0.0831,0.0789,0.0761,0.0651,0.0697,0.0695,0.0694,0.0693,0.0692,0.0692,0.0691,0.0765,0.078,0.0813,0.0897,0.0969,0.0991,0.1001,0.0969,0.0922,0.0925,0.0766,0.079,0.0793,0.0873,0.0873,0.0873,0.0873,0.0874,0.0874,0.0732,0.0768,0.0824,0.0931,0.1011,0.1079,0.1068,0.1022,0.0951,0.087,0.0929,0.0808,0.0802,0.0801,0.0876,0.0876,0.0876,0.0875,0.0875,0.0709,0.0713,0.0814,0.089,0.1052,0.1077,0.11,0.0957,0.0891,0.0799,0.0805,0.0808,0.0753,0.0748,0.0743,0.0805,0.0804,0.0803,0,0.0677,0.0686,0.081,0.0911,0.1003,0.1058,0.0955,0.0891,0.0797,0.0798,0.0869,0.0882,0.088,0.0824,0.0817,0.0814,0,0,0,0.0648,0.07,0.0794,0.0897,0.0989,0.091,0.0917,0.0846,0.0865,0.0718,0.0775,0.0782,0.0808,0.0885,0.0807,0.0799,0.0793,0,0]}]]